Time,TemperatureF,DewpointF,PressureIn,WindDirection,WindDirectionDegrees,WindSpeedMPH,WindSpeedGustMPH,Humidity,HourlyPrecipIn,Conditions,Clouds,dailyrainin,SoftwareType,DateUTC
2013-08-07 00:03:00,58.5,57.4,29.80,NNW,338,0.0,0.0,96,0.00,RA,,0.00,WeatherDisplay:10.37,2013-08-07 05:03:00,
2013-08-07 00:08:00,58.3,57.2,29.80,NNW,338,0.0,0.0,96,0.00,RA,,0.00,WeatherDisplay:10.37,2013-08-07 05:08:00,
2013-08-07 00:13:00,58.1,57.0,29.80,NNW,338,0.0,0.0,96,0.00,SCT,,0.00,WeatherDisplay:10.37,2013-08-07 05:13:00,
2013-08-07 00:18:00,57.9,56.8,29.80,NNW,338,0.0,0.0,96,0.00,SCT,,0.00,WeatherDisplay:10.37,2013-08-07 05:18:00,
2013-08-07 00:23:00,57.7,56.6,29.80,NNW,338,0.0,0.0,96,0.00,SCT,,0.00,WeatherDisplay:10.37,2013-08-07 05:23:00,
2013-08-07 00:28:00,57.7,56.6,29.81,NNW,338,0.0,0.0,96,0.00,SCT,,0.00,WeatherDisplay:10.37,2013-08-07 05:28:00,
2013-08-07 00:33:00,57.6,56.5,29.81,NNW,338,0.0,0.0,96,0.00,SCT,,0.00,WeatherDisplay:10.37,2013-08-07 05:33:00,
2013-08-07 00:38:00,57.7,56.6,29.80,NNW,338,0.0,0.0,96,0.00,SCT,,0.00,WeatherDisplay:10.37,2013-08-07 05:38:00,
2013-08-07 00:43:00,57.6,56.5,29.80,NNW,338,0.0,0.0,96,0.00,BKN,,0.00,WeatherDisplay:10.37,2013-08-07 05:43:00,
2013-08-07 00:48:00,57.6,56.5,29.81,NNW,338,0.0,0.0,96,0.00,BKN,,0.00,WeatherDisplay:10.37,2013-08-07 05:48:00,
2013-08-07 00:53:00,57.6,56.5,29.81,NNW,338,0.0,0.0,96,0.00,BKN,,0.00,WeatherDisplay:10.37,2013-08-07 05:53:00,
2013-08-07 00:58:00,57.9,57.1,29.81,NNW,338,0.0,0.0,97,0.00,BKN,,0.00,WeatherDisplay:10.37,2013-08-07 05:58:00,
2013-08-07 01:03:00,57.9,57.1,29.81,NNW,338,0.0,0.0,97,0.00,OVC,,0.00,WeatherDisplay:10.37,2013-08-07 06:03:00,
2013-08-07 01:08:00,57.9,57.1,29.81,NNW,338,0.0,0.0,97,0.00,OVC,,0.00,WeatherDisplay:10.37,2013-08-07 06:08:00,
2013-08-07 01:13:00,57.9,57.1,29.81,NNW,338,1.5,2.3,97,0.00,OVC,,0.00,WeatherDisplay:10.37,2013-08-07 06:13:00,
2013-08-07 01:18:00,57.9,57.1,29.81,WSW,248,2.0,2.7,97,0.00,OVC,,0.00,WeatherDisplay:10.37,2013-08-07 06:18:00,
2013-08-07 01:23:00,57.9,57.1,29.81,SSW,202,0.0,0.0,97,0.00,SCT,,0.00,WeatherDisplay:10.37,2013-08-07 06:23:00,
2013-08-07 01:28:00,58.5,57.7,29.82,NNW,338,0.3,1.2,97,0.00,SCT,,0.00,WeatherDisplay:10.37,2013-08-07 06:28:00,
2013-08-07 01:33:00,58.3,57.5,29.82,NNW,338,0.0,0.0,97,0.00,SCT,,0.00,WeatherDisplay:10.37,2013-08-07 06:33:00,
2013-08-07 01:38:00,58.3,57.5,29.82,NNW,338,0.0,0.0,97,0.00,SCT,,0.00,WeatherDisplay:10.37,2013-08-07 06:38:00,
2013-08-07 01:43:00,58.5,57.7,29.82,NNW,338,0.0,0.0,97,0.00,SCT,,0.00,WeatherDisplay:10.37,2013-08-07 06:43:00,
2013-08-07 01:48:00,58.5,57.7,29.81,NNW,338,0.0,0.0,97,0.00,SCT,,0.00,WeatherDisplay:10.37,2013-08-07 06:48:00,
2013-08-07 01:53:00,59.2,58.3,29.81,NNW,338,0.0,0.0,97,0.00,CLR,,0.00,WeatherDisplay:10.37,2013-08-07 06:53:00,
2013-08-07 01:58:00,59.2,58.3,29.81,North,360,0.6,1.2,97,0.00,CLR,,0.00,WeatherDisplay:10.37,2013-08-07 06:58:00,
2013-08-07 02:03:00,59.5,58.6,29.81,North,360,0.0,0.0,97,0.00,CLR,,0.00,WeatherDisplay:10.37,2013-08-07 07:03:00,
2013-08-07 02:08:00,59.5,58.6,29.81,North,360,0.0,0.0,97,0.00,CLR,,0.00,WeatherDisplay:10.37,2013-08-07 07:08:00,
2013-08-07 02:13:00,59.7,58.8,29.82,North,360,0.0,0.0,97,0.00,SCT,,0.00,WeatherDisplay:10.37,2013-08-07 07:13:00,
2013-08-07 02:18:00,59.7,58.8,29.82,North,360,0.0,0.0,97,0.00,SCT,,0.00,WeatherDisplay:10.37,2013-08-07 07:18:00,
2013-08-07 02:23:00,59.7,58.8,29.82,North,360,0.0,0.0,97,0.00,SCT,,0.00,WeatherDisplay:10.37,2013-08-07 07:23:00,
2013-08-07 02:28:00,59.7,58.8,29.82,North,360,0.0,0.0,97,0.00,SCT,,0.00,WeatherDisplay:10.37,2013-08-07 07:28:00,
2013-08-07 02:33:00,59.5,58.6,29.82,North,360,0.0,0.0,97,0.00,CLR,,0.00,WeatherDisplay:10.37,2013-08-07 07:33:00,
2013-08-07 02:38:00,59.5,58.6,29.82,North,360,0.0,0.0,97,0.00,CLR,,0.00,WeatherDisplay:10.37,2013-08-07 07:38:00,
2013-08-07 02:43:00,59.2,58.3,29.82,North,360,0.0,0.0,97,0.00,CLR,,0.00,WeatherDisplay:10.37,2013-08-07 07:43:00,
2013-08-07 02:48:00,59.9,59.0,29.82,North,360,0.0,0.0,97,0.00,CLR,,0.00,WeatherDisplay:10.37,2013-08-07 07:48:00,
2013-08-07 02:53:00,59.5,58.9,29.82,NNW,338,0.0,0.0,98,0.00,CLR,,0.00,WeatherDisplay:10.37,2013-08-07 07:53:00,
2013-08-07 02:58:00,59.7,59.1,29.82,North,360,0.0,0.0,98,0.00,CLR,,0.00,WeatherDisplay:10.37,2013-08-07 07:58:00,
2013-08-07 03:03:00,59.9,59.3,29.82,North,360,0.0,0.0,98,0.00,CLR,,0.00,WeatherDisplay:10.37,2013-08-07 08:03:00,
2013-08-07 03:08:00,60.1,59.5,29.82,North,360,0.3,1.2,98,0.00,CLR,,0.00,WeatherDisplay:10.37,2013-08-07 08:08:00,
2013-08-07 03:13:00,59.7,59.1,29.83,North,360,0.0,0.0,98,0.00,CLR,,0.00,WeatherDisplay:10.37,2013-08-07 08:13:00,
2013-08-07 03:18:00,59.4,58.8,29.83,North,360,0.0,0.0,98,0.00,CLR,,0.00,WeatherDisplay:10.37,2013-08-07 08:18:00,
2013-08-07 03:23:00,59.2,58.6,29.83,North,360,0.0,0.0,98,0.00,CLR,,0.00,WeatherDisplay:10.37,2013-08-07 08:23:00,
2013-08-07 03:28:00,59.2,58.6,29.83,North,360,0.0,0.0,98,0.00,CLR,,0.00,WeatherDisplay:10.37,2013-08-07 08:28:00,
2013-08-07 03:33:00,59.2,58.6,29.83,North,360,0.0,0.0,98,0.00,CLR,,0.00,WeatherDisplay:10.37,2013-08-07 08:33:00,
2013-08-07 03:38:00,59.4,58.8,29.83,North,360,0.0,0.0,98,0.00,CLR,,0.00,WeatherDisplay:10.37,2013-08-07 08:38:00,
2013-08-07 03:43:00,59.4,58.8,29.83,North,360,0.0,0.0,98,0.00,CLR,,0.00,WeatherDisplay:10.37,2013-08-07 08:43:00,
2013-08-07 03:48:00,59.2,58.6,29.84,North,360,0.0,0.0,98,0.00,CLR,,0.00,WeatherDisplay:10.37,2013-08-07 08:48:00,
2013-08-07 03:53:00,59.2,58.6,29.84,North,360,0.0,0.0,98,0.00,CLR,,0.00,WeatherDisplay:10.37,2013-08-07 08:53:00,
2013-08-07 03:58:00,59.2,58.6,29.84,North,360,0.0,0.0,98,0.00,CLR,,0.00,WeatherDisplay:10.37,2013-08-07 08:58:00,
2013-08-07 04:03:00,59.0,58.4,29.84,North,360,0.0,0.0,98,0.00,CLR,,0.00,WeatherDisplay:10.37,2013-08-07 09:03:00,
2013-08-07 04:08:00,59.0,58.4,29.84,North,360,0.0,0.0,98,0.00,CLR,,0.00,WeatherDisplay:10.37,2013-08-07 09:08:00,
2013-08-07 04:13:00,58.8,58.2,29.85,North,360,0.0,0.0,98,0.00,CLR,,0.00,WeatherDisplay:10.37,2013-08-07 09:13:00,
2013-08-07 04:18:00,58.6,58.0,29.85,North,360,0.0,0.0,98,0.00,CLR,,0.00,WeatherDisplay:10.37,2013-08-07 09:18:00,
2013-08-07 04:23:00,58.6,58.0,29.85,North,360,0.0,0.0,98,0.00,CLR,,0.00,WeatherDisplay:10.37,2013-08-07 09:23:00,
2013-08-07 04:28:00,58.5,57.9,29.85,North,360,0.0,0.0,98,0.00,CLR,,0.00,WeatherDisplay:10.37,2013-08-07 09:28:00,
2013-08-07 04:33:00,58.3,57.7,29.85,North,360,0.0,0.0,98,0.00,CLR,,0.00,WeatherDisplay:10.37,2013-08-07 09:33:00,
2013-08-07 04:38:00,58.3,57.7,29.85,North,360,0.0,0.0,98,0.00,CLR,,0.00,WeatherDisplay:10.37,2013-08-07 09:38:00,
2013-08-07 04:43:00,58.3,57.7,29.85,North,360,0.0,0.0,98,0.00,CLR,,0.00,WeatherDisplay:10.37,2013-08-07 09:43:00,
2013-08-07 04:48:00,58.3,57.7,29.86,North,360,0.0,0.0,98,0.00,CLR,,0.00,WeatherDisplay:10.37,2013-08-07 09:48:00,
2013-08-07 04:53:00,58.1,57.5,29.86,North,360,0.0,0.0,98,0.00,CLR,,0.00,WeatherDisplay:10.37,2013-08-07 09:53:00,
2013-08-07 04:58:00,57.7,57.1,29.86,North,360,0.0,0.0,98,0.00,CLR,,0.00,WeatherDisplay:10.37,2013-08-07 09:58:00,
2013-08-07 05:03:00,57.6,57.0,29.86,North,360,0.0,0.0,98,0.00,CLR,,0.00,WeatherDisplay:10.37,2013-08-07 10:03:00,
2013-08-07 05:08:00,57.6,57.0,29.86,North,360,0.0,0.0,98,0.00,CLR,,0.00,WeatherDisplay:10.37,2013-08-07 10:08:00,
2013-08-07 05:13:00,57.6,57.0,29.85,North,360,0.0,0.0,98,0.00,CLR,,0.00,WeatherDisplay:10.37,2013-08-07 10:13:00,
2013-08-07 05:18:00,57.6,57.0,29.85,North,360,0.0,0.0,98,0.00,CLR,,0.00,WeatherDisplay:10.37,2013-08-07 10:18:00,
2013-08-07 05:23:00,57.9,57.3,29.85,North,360,1.3,2.3,98,0.00,CLR,,0.00,WeatherDisplay:10.37,2013-08-07 10:23:00,
2013-08-07 05:28:00,57.9,57.3,29.86,North,360,0.0,0.0,98,0.00,CLR,,0.00,WeatherDisplay:10.37,2013-08-07 10:28:00,
2013-08-07 05:33:00,58.1,57.5,29.86,North,360,0.0,0.0,98,0.00,CLR,,0.00,WeatherDisplay:10.37,2013-08-07 10:33:00,
2013-08-07 05:38:00,58.3,57.7,29.86,North,360,0.0,0.0,98,0.00,CLR,,0.00,WeatherDisplay:10.37,2013-08-07 10:38:00,
2013-08-07 05:43:00,58.3,57.7,29.86,North,360,0.0,0.0,98,0.00,CLR,,0.00,WeatherDisplay:10.37,2013-08-07 10:43:00,
2013-08-07 05:48:00,58.3,57.7,29.88,North,360,0.0,1.2,98,0.00,CLR,,0.00,WeatherDisplay:10.37,2013-08-07 10:48:00,
2013-08-07 05:53:00,58.3,57.7,29.88,North,360,0.8,1.2,98,0.00,SCT,,0.00,WeatherDisplay:10.37,2013-08-07 10:53:00,
2013-08-07 05:58:00,58.5,57.9,29.88,SE,135,1.3,2.3,98,0.00,SCT,,0.00,WeatherDisplay:10.37,2013-08-07 10:58:00,
2013-08-07 06:03:00,58.5,57.9,29.87,East,90,0.2,1.1,98,0.00,SCT,,0.00,WeatherDisplay:10.37,2013-08-07 11:03:00,
2013-08-07 06:08:00,58.5,57.9,29.87,North,360,0.1,1.2,98,0.00,SCT,,0.00,WeatherDisplay:10.37,2013-08-07 11:08:00,
2013-08-07 06:13:00,58.5,57.9,29.88,NNW,338,0.0,0.0,98,0.00,SCT,,0.00,WeatherDisplay:10.37,2013-08-07 11:13:00,
2013-08-07 06:18:00,58.5,57.9,29.88,NNW,338,0.0,0.0,98,0.00,SCT,,0.00,WeatherDisplay:10.37,2013-08-07 11:18:00,
2013-08-07 06:23:00,58.5,57.9,29.88,NNW,338,0.0,0.0,98,0.00,SCT,,0.00,WeatherDisplay:10.37,2013-08-07 11:23:00,
2013-08-07 06:28:00,58.5,57.9,29.88,North,360,2.2,3.5,98,0.00,SCT,,0.00,WeatherDisplay:10.37,2013-08-07 11:28:00,
2013-08-07 06:33:00,58.5,57.9,29.88,North,360,0.6,1.7,98,0.00,CLR,,0.00,WeatherDisplay:10.37,2013-08-07 11:33:00,
2013-08-07 06:38:00,58.5,57.9,29.89,NE,45,2.8,3.5,98,0.00,CLR,,0.00,WeatherDisplay:10.37,2013-08-07 11:38:00,
2013-08-07 06:43:00,58.5,57.9,29.89,NE,45,0.5,1.7,98,0.00,CLR,,0.00,WeatherDisplay:10.37,2013-08-07 11:43:00,
2013-08-07 06:48:00,58.5,57.9,29.89,NNE,22,2.6,3.5,98,0.00,CLR,,0.00,WeatherDisplay:10.37,2013-08-07 11:48:00,
2013-08-07 06:53:00,58.5,57.9,29.89,North,360,1.8,3.5,98,0.00,CLR,,0.00,WeatherDisplay:10.37,2013-08-07 11:53:00,
2013-08-07 06:58:00,58.5,57.9,29.89,North,360,0.0,0.0,98,0.00,CLR,,0.00,WeatherDisplay:10.37,2013-08-07 11:58:00,
2013-08-07 07:03:00,58.6,58.0,29.90,North,360,0.3,1.2,98,0.00,CLR,,0.00,WeatherDisplay:10.37,2013-08-07 12:03:00,
2013-08-07 07:08:00,58.6,58.0,29.90,North,360,0.0,0.0,98,0.00,CLR,,0.00,WeatherDisplay:10.37,2013-08-07 12:08:00,
2013-08-07 07:13:00,58.6,58.0,29.91,North,360,0.0,0.0,98,0.00,CLR,,0.00,WeatherDisplay:10.37,2013-08-07 12:13:00,
2013-08-07 07:18:00,58.8,58.2,29.91,North,360,0.3,1.2,98,0.00,CLR,,0.00,WeatherDisplay:10.37,2013-08-07 12:18:00,
2013-08-07 07:23:00,58.8,58.2,29.91,North,360,0.0,0.0,98,0.00,CLR,,0.00,WeatherDisplay:10.37,2013-08-07 12:23:00,
2013-08-07 07:28:00,58.8,58.2,29.92,North,360,0.0,0.0,98,0.00,CLR,,0.00,WeatherDisplay:10.37,2013-08-07 12:28:00,
2013-08-07 07:33:00,58.8,58.2,29.92,North,360,0.0,0.0,98,0.00,CLR,,0.00,WeatherDisplay:10.37,2013-08-07 12:33:00,
2013-08-07 07:38:00,59.9,59.3,29.92,SSE,158,0.8,1.2,98,0.00,CLR,,0.00,WeatherDisplay:10.37,2013-08-07 12:38:00,
2013-08-07 07:43:00,59.9,59.3,29.92,WSW,248,2.5,3.2,98,0.00,CLR,,0.00,WeatherDisplay:10.37,2013-08-07 12:43:00,
2013-08-07 07:48:00,60.4,59.5,29.93,North,360,2.7,3.5,97,0.00,CLR,,0.00,WeatherDisplay:10.37,2013-08-07 12:48:00,
2013-08-07 07:53:00,61.0,59.9,29.93,SW,225,0.4,1.7,96,0.00,CLR,,0.00,WeatherDisplay:10.37,2013-08-07 12:53:00,
2013-08-07 07:58:00,61.3,59.9,29.93,North,360,1.7,2.3,95,0.00,CLR,,0.00,WeatherDisplay:10.37,2013-08-07 12:58:00,
2013-08-07 08:03:00,61.3,58.3,29.93,NE,45,3.1,6.3,90,0.00,CLR,,0.00,WeatherDisplay:10.37,2013-08-07 13:03:00,
2013-08-07 08:08:00,61.5,57.9,29.93,NNE,22,3.9,6.8,88,0.00,CLR,,0.00,WeatherDisplay:10.37,2013-08-07 13:08:00,
2013-08-07 08:13:00,61.5,57.6,29.94,ENE,68,2.3,5.8,87,0.00,CLR,,0.00,WeatherDisplay:10.37,2013-08-07 13:13:00,
2013-08-07 08:18:00,61.5,57.6,29.94,NNW,338,1.5,2.3,87,0.00,CLR,,0.00,WeatherDisplay:10.37,2013-08-07 13:18:00,
2013-08-07 08:23:00,61.2,57.3,29.94,ESE,112,2.6,3.5,87,0.00,CLR,,0.00,WeatherDisplay:10.37,2013-08-07 13:23:00,
2013-08-07 08:28:00,61.5,57.3,29.93,NE,45,4.3,5.8,86,0.00,CLR,,0.00,WeatherDisplay:10.37,2013-08-07 13:28:00,
2013-08-07 08:33:00,61.3,57.7,29.93,SSE,158,1.9,4.6,88,0.00,CLR,,0.00,WeatherDisplay:10.37,2013-08-07 13:33:00,
2013-08-07 08:38:00,61.2,57.6,29.94,East,90,0.9,2.3,88,0.00,CLR,,0.00,WeatherDisplay:10.37,2013-08-07 13:38:00,
2013-08-07 08:43:00,61.7,57.1,29.94,NNW,338,3.3,4.6,85,0.00,CLR,,0.00,WeatherDisplay:10.37,2013-08-07 13:43:00,
2013-08-07 08:48:00,61.2,57.0,29.95,South,180,0.9,1.7,86,0.00,CLR,,0.00,WeatherDisplay:10.37,2013-08-07 13:48:00,
2013-08-07 08:53:00,61.9,56.7,29.95,North,360,4.1,5.8,83,0.00,CLR,,0.00,WeatherDisplay:10.37,2013-08-07 13:53:00,
2013-08-07 08:58:00,62.2,56.6,29.95,North,360,2.7,3.5,82,0.00,CLR,,0.00,WeatherDisplay:10.37,2013-08-07 13:58:00,
2013-08-07 09:03:00,61.5,56.6,29.95,WSW,248,2.2,3.7,84,0.00,CLR,,0.00,WeatherDisplay:10.37,2013-08-07 14:03:00,
2013-08-07 09:08:00,62.4,56.8,29.95,East,90,3.2,4.6,82,0.00,CLR,,0.00,WeatherDisplay:10.37,2013-08-07 14:08:00,
2013-08-07 09:13:00,62.4,56.5,29.95,SSE,158,2.9,4.6,81,0.00,CLR,,0.00,WeatherDisplay:10.37,2013-08-07 14:13:00,
2013-08-07 09:18:00,62.8,56.9,29.95,North,360,1.8,2.3,81,0.00,CLR,,0.00,WeatherDisplay:10.37,2013-08-07 14:18:00,
2013-08-07 09:23:00,63.9,57.6,29.95,WNW,292,1.3,2.3,80,0.00,CLR,,0.00,WeatherDisplay:10.37,2013-08-07 14:23:00,
2013-08-07 09:28:00,64.4,57.4,29.95,NNE,22,3.2,5.8,78,0.00,CLR,,0.00,WeatherDisplay:10.37,2013-08-07 14:28:00,
2013-08-07 09:33:00,63.9,56.2,29.95,NNE,22,5.3,6.8,76,0.00,CLR,,0.00,WeatherDisplay:10.37,2013-08-07 14:33:00,
2013-08-07 09:38:00,63.7,56.4,29.96,West,270,2.2,2.3,77,0.00,CLR,,0.00,WeatherDisplay:10.37,2013-08-07 14:38:00,
2013-08-07 09:43:00,64.4,55.6,29.96,SE,135,2.1,4.6,73,0.00,CLR,,0.00,WeatherDisplay:10.37,2013-08-07 14:43:00,
2013-08-07 09:48:00,64.2,55.7,29.95,NNE,22,3.6,4.6,74,0.00,CLR,,0.00,WeatherDisplay:10.37,2013-08-07 14:48:00,
2013-08-07 09:53:00,64.9,56.0,29.95,SSE,158,1.9,4.2,73,0.00,CLR,,0.00,WeatherDisplay:10.37,2013-08-07 14:53:00,
2013-08-07 09:58:00,65.1,55.5,29.95,SE,135,2.7,3.5,71,0.00,CLR,,0.00,WeatherDisplay:10.37,2013-08-07 14:58:00,
2013-08-07 10:03:00,65.1,55.8,29.96,NE,45,2.7,3.5,72,0.00,CLR,,0.00,WeatherDisplay:10.37,2013-08-07 15:03:00,
2013-08-07 10:08:00,65.1,55.1,29.96,ESE,112,1.9,2.3,70,0.00,CLR,,0.00,WeatherDisplay:10.37,2013-08-07 15:08:00,
2013-08-07 10:13:00,65.5,55.1,29.97,SSE,158,1.7,2.3,69,0.00,CLR,,0.00,WeatherDisplay:10.37,2013-08-07 15:13:00,
2013-08-07 10:18:00,65.5,56.2,29.97,South,180,1.0,2.3,72,0.00,CLR,,0.00,WeatherDisplay:10.37,2013-08-07 15:18:00,
2013-08-07 10:23:00,65.5,54.2,29.97,NNE,22,3.2,4.6,67,0.00,CLR,,0.00,WeatherDisplay:10.37,2013-08-07 15:23:00,
2013-08-07 10:28:00,65.8,54.5,29.98,West,270,3.0,5.8,67,0.00,CLR,,0.00,WeatherDisplay:10.37,2013-08-07 15:28:00,
2013-08-07 10:33:00,66.4,54.3,29.98,NNE,22,4.0,5.8,65,0.00,CLR,,0.00,WeatherDisplay:10.37,2013-08-07 15:33:00,
2013-08-07 10:38:00,66.6,54.0,29.98,NNW,338,3.6,5.8,64,0.00,CLR,,0.00,WeatherDisplay:10.37,2013-08-07 15:38:00,
2013-08-07 10:43:00,67.1,53.6,29.98,East,90,3.9,5.8,62,0.00,CLR,,0.00,WeatherDisplay:10.37,2013-08-07 15:43:00,
2013-08-07 10:48:00,67.3,53.8,29.98,WSW,248,1.7,2.3,62,0.00,CLR,,0.00,WeatherDisplay:10.37,2013-08-07 15:48:00,
2013-08-07 10:53:00,66.9,53.5,29.98,ENE,68,4.3,6.3,62,0.00,CLR,,0.00,WeatherDisplay:10.37,2013-08-07 15:53:00,
2013-08-07 10:58:00,67.1,53.2,29.98,SSE,158,1.9,2.3,61,0.00,CLR,,0.00,WeatherDisplay:10.37,2013-08-07 15:58:00,
2013-08-07 11:03:00,67.6,53.2,29.98,ESE,112,4.4,8.1,60,0.00,CLR,,0.00,WeatherDisplay:10.37,2013-08-07 16:03:00,
2013-08-07 11:08:00,67.8,53.4,29.98,NNE,22,2.8,4.7,60,0.00,CLR,,0.00,WeatherDisplay:10.37,2013-08-07 16:08:00,
2013-08-07 11:13:00,68.5,53.6,29.98,NE,45,2.8,5.8,59,0.00,CLR,,0.00,WeatherDisplay:10.37,2013-08-07 16:13:00,
2013-08-07 11:18:00,67.6,52.3,29.98,NNE,22,3.5,4.6,58,0.00,CLR,,0.00,WeatherDisplay:10.37,2013-08-07 16:18:00,
2013-08-07 11:23:00,68.2,52.9,29.98,ENE,68,3.2,4.6,58,0.00,CLR,,0.00,WeatherDisplay:10.37,2013-08-07 16:23:00,
2013-08-07 11:28:00,68.7,53.3,29.99,ENE,68,3.1,3.5,58,0.00,CLR,,0.00,WeatherDisplay:10.37,2013-08-07 16:28:00,
2013-08-07 11:33:00,69.3,53.4,29.99,SE,135,3.4,4.6,57,0.00,CLR,,0.00,WeatherDisplay:10.37,2013-08-07 16:33:00,
2013-08-07 11:38:00,69.4,53.0,29.99,SSE,158,3.3,3.5,56,0.00,CLR,,0.00,WeatherDisplay:10.37,2013-08-07 16:38:00,
2013-08-07 11:43:00,69.6,53.2,29.99,NE,45,2.7,3.2,56,0.00,CLR,,0.00,WeatherDisplay:10.37,2013-08-07 16:43:00,
2013-08-07 11:48:00,69.1,53.2,30.00,North,360,4.8,6.3,57,0.00,CLR,,0.00,WeatherDisplay:10.37,2013-08-07 16:48:00,
2013-08-07 11:53:00,69.8,53.4,30.00,WNW,292,2.6,3.5,56,0.00,CLR,,0.00,WeatherDisplay:10.37,2013-08-07 16:53:00,
2013-08-07 11:58:00,69.4,53.0,30.00,NE,45,2.9,4.6,56,0.00,CLR,,0.00,WeatherDisplay:10.37,2013-08-07 16:58:00,
2013-08-07 12:03:00,70.3,53.4,30.00,SSE,158,3.7,5.8,55,0.00,CLR,,0.00,WeatherDisplay:10.37,2013-08-07 17:03:00,
2013-08-07 12:08:00,70.3,52.9,30.00,ESE,112,2.1,2.7,54,0.00,CLR,,0.00,WeatherDisplay:10.37,2013-08-07 17:08:00,
2013-08-07 12:13:00,70.2,52.8,30.00,NE,45,2.7,3.5,54,0.00,CLR,,0.00,WeatherDisplay:10.37,2013-08-07 17:13:00,
2013-08-07 12:18:00,70.5,53.1,30.00,ESE,112,2.7,4.6,54,0.00,CLR,,0.00,WeatherDisplay:10.37,2013-08-07 17:18:00,
2013-08-07 12:23:00,70.9,53.4,30.00,ENE,68,2.9,5.8,54,0.00,CLR,,0.00,WeatherDisplay:10.37,2013-08-07 17:23:00,
2013-08-07 12:28:00,70.9,53.4,30.00,NE,45,2.2,2.7,54,0.00,CLR,,0.00,WeatherDisplay:10.37,2013-08-07 17:28:00,
2013-08-07 12:33:00,70.5,52.5,30.00,East,90,4.5,5.8,53,0.00,CLR,,0.00,WeatherDisplay:10.37,2013-08-07 17:33:00,
2013-08-07 12:38:00,70.7,52.7,30.00,SSE,158,3.6,5.8,53,0.00,CLR,,0.00,WeatherDisplay:10.37,2013-08-07 17:38:00,
2013-08-07 12:43:00,71.4,53.9,30.00,NW,315,2.5,3.5,54,0.00,CLR,,0.00,WeatherDisplay:10.37,2013-08-07 17:43:00,
2013-08-07 12:48:00,72.0,54.4,30.00,SSE,158,2.7,3.5,54,0.00,CLR,,0.00,WeatherDisplay:10.37,2013-08-07 17:48:00,
2013-08-07 12:53:00,72.0,53.4,30.00,NNW,338,3.4,5.8,52,0.00,CLR,,0.00,WeatherDisplay:10.37,2013-08-07 17:53:00,
2013-08-07 12:58:00,72.3,53.7,30.00,NNE,22,2.1,4.6,52,0.00,CLR,,0.00,WeatherDisplay:10.37,2013-08-07 17:58:00,
2013-08-07 13:03:00,72.3,52.6,30.00,ENE,68,4.1,5.8,50,0.00,CLR,,0.00,WeatherDisplay:10.37,2013-08-07 18:03:00,
2013-08-07 13:04:00,72.1,53.5,30.00,NNE,22,3.0,4.6,52,0.00,CLR,,0.00,WeatherDisplay:10.37,2013-08-07 18:04:00,
2013-08-07 13:09:00,72.7,54.1,30.00,South,180,2.9,4.6,52,0.00,CLR,,0.00,WeatherDisplay:10.37,2013-08-07 18:09:00,
2013-08-07 13:14:00,72.9,53.2,30.00,NNE,22,3.7,4.6,50,0.00,CLR,,0.00,WeatherDisplay:10.37,2013-08-07 18:14:00,
2013-08-07 13:19:00,73.0,53.3,30.00,SSE,158,2.7,4.6,50,0.00,CLR,,0.00,WeatherDisplay:10.37,2013-08-07 18:19:00,
2013-08-07 13:24:00,72.9,53.2,29.99,NNE,22,3.6,5.8,50,0.00,CLR,,0.00,WeatherDisplay:10.37,2013-08-07 18:24:00,
2013-08-07 13:29:00,73.4,53.6,29.99,NNW,338,3.4,4.6,50,0.00,CLR,,0.00,WeatherDisplay:10.37,2013-08-07 18:29:00,
2013-08-07 13:34:00,72.5,53.3,29.99,SSW,202,2.6,4.6,51,0.00,CLR,,0.00,WeatherDisplay:10.37,2013-08-07 18:34:00,
2013-08-07 13:39:00,74.1,54.3,29.99,NW,315,3.6,5.8,50,0.00,CLR,,0.00,WeatherDisplay:10.37,2013-08-07 18:39:00,
2013-08-07 13:44:00,73.4,53.1,29.99,NNW,338,2.9,4.6,49,0.00,CLR,,0.00,WeatherDisplay:10.37,2013-08-07 18:44:00,
2013-08-07 13:49:00,73.9,54.1,30.00,East,90,2.4,2.4,50,0.00,CLR,,0.00,WeatherDisplay:10.37,2013-08-07 18:49:00,
2013-08-07 13:54:00,74.1,52.6,30.00,West,270,2.5,4.6,47,0.00,CLR,,0.00,WeatherDisplay:10.37,2013-08-07 18:54:00,
2013-08-07 13:59:00,74.1,52.0,30.00,NNE,22,2.7,3.5,46,0.00,CLR,,0.00,WeatherDisplay:10.37,2013-08-07 18:59:00,
2013-08-07 14:04:00,73.9,53.5,29.99,South,180,3.6,4.6,49,0.00,CLR,,0.00,WeatherDisplay:10.37,2013-08-07 19:04:00,
2013-08-07 14:09:00,73.8,52.9,29.99,ENE,68,4.1,4.6,48,0.00,CLR,,0.00,WeatherDisplay:10.37,2013-08-07 19:09:00,
2013-08-07 14:14:00,73.9,51.8,30.00,ESE,112,5.7,7.3,46,0.00,CLR,,0.00,WeatherDisplay:10.37,2013-08-07 19:14:00,
2013-08-07 14:19:00,74.5,52.4,30.00,NE,45,3.5,5.3,46,0.00,CLR,,0.00,WeatherDisplay:10.37,2013-08-07 19:19:00,
2013-08-07 14:24:00,74.3,51.0,29.99,ESE,112,4.5,4.6,44,0.00,CLR,,0.00,WeatherDisplay:10.37,2013-08-07 19:24:00,
2013-08-07 14:29:00,74.5,52.4,29.99,SSE,158,4.9,4.9,46,0.00,CLR,,0.00,WeatherDisplay:10.37,2013-08-07 19:29:00,
2013-08-07 14:34:00,74.8,52.6,29.99,NE,45,4.1,4.2,46,0.00,CLR,,0.00,WeatherDisplay:10.37,2013-08-07 19:34:00,
2013-08-07 14:39:00,74.5,51.8,29.99,NNE,22,2.3,3.5,45,0.00,CLR,,0.00,WeatherDisplay:10.37,2013-08-07 19:39:00,
2013-08-07 14:44:00,74.5,53.5,29.99,SSE,158,3.8,5.8,48,0.00,CLR,,0.00,WeatherDisplay:10.37,2013-08-07 19:44:00,
2013-08-07 14:49:00,74.3,52.8,30.00,ENE,68,2.9,4.7,47,0.00,CLR,,0.00,WeatherDisplay:10.37,2013-08-07 19:49:00,
2013-08-07 14:54:00,73.4,51.9,30.00,SSE,158,1.3,2.3,47,0.00,CLR,,0.00,WeatherDisplay:10.37,2013-08-07 19:54:00,
2013-08-07 14:59:00,74.7,53.1,29.99,ENE,68,0.0,3.5,47,0.00,CLR,,0.00,WeatherDisplay:10.37,2013-08-07 19:59:00,
2013-08-07 15:04:00,74.7,53.7,29.99,North,360,0.8,2.3,48,0.00,CLR,,0.00,WeatherDisplay:10.37,2013-08-07 20:04:00,
2013-08-07 15:09:00,75.6,53.9,29.99,NE,45,3.6,4.6,47,0.00,CLR,,0.00,WeatherDisplay:10.37,2013-08-07 20:09:00,
2013-08-07 15:14:00,75.0,52.8,29.99,NNW,338,3.2,4.6,46,0.00,CLR,,0.00,WeatherDisplay:10.37,2013-08-07 20:14:00,
2013-08-07 15:19:00,75.4,53.2,29.99,WSW,248,3.9,3.9,46,0.00,CLR,,0.00,WeatherDisplay:10.37,2013-08-07 20:19:00,
2013-08-07 15:24:00,75.4,52.6,29.99,SE,135,4.6,5.8,45,0.00,CLR,,0.00,WeatherDisplay:10.37,2013-08-07 20:24:00,
2013-08-07 15:29:00,74.7,51.9,29.99,ESE,112,2.0,3.7,45,0.00,CLR,,0.00,WeatherDisplay:10.37,2013-08-07 20:29:00,
2013-08-07 15:34:00,75.2,53.0,29.99,ESE,112,3.7,4.7,46,0.00,SCT,,0.00,WeatherDisplay:10.37,2013-08-07 20:34:00,
2013-08-07 15:39:00,75.6,53.4,29.99,ESE,112,3.4,4.6,46,0.00,SCT,,0.00,WeatherDisplay:10.37,2013-08-07 20:39:00,
2013-08-07 15:44:00,75.6,54.5,29.99,SSE,158,1.7,4.6,48,0.00,SCT,,0.00,WeatherDisplay:10.37,2013-08-07 20:44:00,
2013-08-07 15:49:00,75.4,53.2,29.99,ENE,68,3.5,4.6,46,0.00,SCT,,0.00,WeatherDisplay:10.37,2013-08-07 20:49:00,
2013-08-07 15:54:00,75.7,52.2,29.99,SE,135,3.4,5.8,44,0.00,SCT,,0.00,WeatherDisplay:10.37,2013-08-07 20:54:00,
2013-08-07 15:59:00,75.2,52.4,29.99,ESE,112,3.4,3.5,45,0.00,SCT,,0.00,WeatherDisplay:10.37,2013-08-07 20:59:00,
2013-08-07 16:04:00,76.5,51.7,29.99,SSE,158,0.9,2.3,42,0.00,SCT,,0.00,WeatherDisplay:10.37,2013-08-07 21:04:00,
2013-08-07 16:09:00,75.9,51.8,29.99,WNW,292,2.9,5.8,43,0.00,SCT,,0.00,WeatherDisplay:10.37,2013-08-07 21:09:00,
2013-08-07 16:14:00,76.1,53.2,29.99,West,270,2.1,4.6,45,0.00,SCT,,0.00,WeatherDisplay:10.37,2013-08-07 21:14:00,
2013-08-07 16:19:00,75.0,52.2,29.99,SSE,158,2.2,3.5,45,0.00,SCT,,0.00,WeatherDisplay:10.37,2013-08-07 21:19:00,
2013-08-07 16:24:00,75.7,52.2,29.99,NE,45,1.9,3.7,44,0.00,SCT,,0.00,WeatherDisplay:10.37,2013-08-07 21:24:00,
2013-08-07 16:29:00,75.7,54.0,29.99,NNW,338,2.5,2.5,47,0.00,SCT,,0.00,WeatherDisplay:10.37,2013-08-07 21:29:00,
2013-08-07 16:34:00,76.8,54.5,29.99,NNE,22,5.8,8.1,46,0.00,BKN,,0.00,WeatherDisplay:10.37,2013-08-07 21:34:00,
2013-08-07 16:39:00,75.6,53.4,29.99,NNW,338,3.0,3.7,46,0.00,BKN,,0.00,WeatherDisplay:10.37,2013-08-07 21:39:00,
2013-08-07 16:44:00,77.0,55.2,29.99,West,270,2.3,3.7,47,0.00,BKN,,0.00,WeatherDisplay:10.37,2013-08-07 21:44:00,
2013-08-07 16:49:00,76.5,53.0,29.98,NW,315,3.1,4.6,44,0.00,BKN,,0.00,WeatherDisplay:10.37,2013-08-07 21:49:00,
2013-08-07 16:54:00,76.8,53.2,29.98,NNE,22,4.1,6.3,44,0.00,SCT,,0.00,WeatherDisplay:10.37,2013-08-07 21:54:00,
2013-08-07 16:59:00,76.5,53.0,29.98,ESE,112,3.0,3.7,44,0.00,SCT,,0.00,WeatherDisplay:10.37,2013-08-07 21:59:00,
2013-08-07 17:04:00,76.5,52.3,29.98,NE,45,1.4,1.4,43,0.00,SCT,,0.00,WeatherDisplay:10.37,2013-08-07 22:04:00,
2013-08-07 17:09:00,75.6,52.1,29.98,SSE,158,2.6,3.7,44,0.00,SCT,,0.00,WeatherDisplay:10.37,2013-08-07 22:09:00,
2013-08-07 17:14:00,75.9,52.4,29.98,NE,45,0.6,1.7,44,0.00,CLR,,0.00,WeatherDisplay:10.37,2013-08-07 22:14:00,
2013-08-07 17:16:00,77.5,53.2,29.98,NNW,338,1.5,1.5,43,0.00,CLR,,0.00,WeatherDisplay:10.37,2013-08-07 22:16:00,
2013-08-07 17:21:00,77.9,53.6,29.98,WNW,292,0.3,2.3,43,0.00,CLR,,0.00,WeatherDisplay:10.37,2013-08-07 22:21:00,
2013-08-07 17:26:00,78.6,52.9,29.98,ESE,112,1.3,1.7,41,0.00,CLR,,0.00,WeatherDisplay:10.37,2013-08-07 22:26:00,
2013-08-07 17:31:00,83.5,53.0,29.98,NE,45,1.3,3.5,35,0.00,CLR,,0.00,WeatherDisplay:10.37,2013-08-07 22:31:00,
2013-08-07 17:36:00,83.5,54.5,29.98,SW,225,2.6,3.5,37,0.00,CLR,,0.00,WeatherDisplay:10.37,2013-08-07 22:36:00,
2013-08-07 17:41:00,83.1,52.6,29.98,NNW,338,1.4,3.5,35,0.00,CLR,,0.00,WeatherDisplay:10.37,2013-08-07 22:41:00,
2013-08-07 17:46:00,83.1,53.4,29.98,North,360,3.2,4.6,36,0.00,CLR,,0.00,WeatherDisplay:10.37,2013-08-07 22:46:00,
2013-08-07 17:51:00,82.4,53.5,29.98,NNE,22,2.6,2.6,37,0.00,CLR,,0.00,WeatherDisplay:10.37,2013-08-07 22:51:00,
2013-08-07 17:56:00,82.6,54.4,29.98,ESE,112,3.1,3.1,38,0.00,CLR,,0.00,WeatherDisplay:10.37,2013-08-07 22:56:00,
2013-08-07 18:01:00,82.0,54.6,29.98,NE,45,2.4,2.4,39,0.00,CLR,,0.00,WeatherDisplay:10.37,2013-08-07 23:01:00,
2013-08-07 18:06:00,81.7,55.0,29.98,NNE,22,2.4,2.4,40,0.00,CLR,,0.00,WeatherDisplay:10.37,2013-08-07 23:06:00,
2013-08-07 18:11:00,81.0,55.1,29.98,NNE,22,1.9,3.5,41,0.00,CLR,,0.00,WeatherDisplay:10.37,2013-08-07 23:11:00,
2013-08-07 18:16:00,82.2,54.1,29.98,NE,45,0.8,2.2,38,0.00,CLR,,0.00,WeatherDisplay:10.37,2013-08-07 23:16:00,
2013-08-07 18:21:00,81.5,53.4,29.98,East,90,3.5,4.6,38,0.00,CLR,,0.00,WeatherDisplay:10.37,2013-08-07 23:21:00,
2013-08-07 18:26:00,81.5,54.8,29.98,ESE,112,0.4,1.7,40,0.00,CLR,,0.00,WeatherDisplay:10.37,2013-08-07 23:26:00,
2013-08-07 18:31:00,80.8,54.2,29.98,ESE,112,1.2,2.3,40,0.00,CLR,,0.00,WeatherDisplay:10.37,2013-08-07 23:31:00,
2013-08-07 18:36:00,79.9,53.4,29.98,South,180,1.4,3.5,40,0.00,CLR,,0.00,WeatherDisplay:10.37,2013-08-07 23:36:00,
2013-08-07 18:41:00,80.1,54.3,29.98,NE,45,0.0,0.0,41,0.00,CLR,,0.00,WeatherDisplay:10.37,2013-08-07 23:41:00,
2013-08-07 18:46:00,79.9,54.1,29.98,East,90,0.3,2.2,41,0.00,CLR,,0.00,WeatherDisplay:10.37,2013-08-07 23:46:00,
2013-08-07 18:51:00,79.3,54.9,29.98,East,90,1.3,2.2,43,0.00,CLR,,0.00,WeatherDisplay:10.37,2013-08-07 23:51:00,
2013-08-07 18:56:00,78.8,54.4,29.98,East,90,0.5,2.3,43,0.00,CLR,,0.00,WeatherDisplay:10.37,2013-08-07 23:56:00,
2013-08-07 19:01:00,78.4,54.7,29.98,East,90,1.3,2.3,44,0.00,CLR,,0.00,WeatherDisplay:10.37,2013-08-08 00:01:00,
2013-08-07 19:06:00,77.9,54.2,29.98,ENE,68,0.0,0.0,44,0.00,CLR,,0.00,WeatherDisplay:10.37,2013-08-08 00:06:00,
2013-08-07 19:11:00,77.2,54.2,29.99,NNE,22,0.2,1.1,45,0.00,CLR,,0.00,WeatherDisplay:10.37,2013-08-08 00:11:00,
2013-08-07 19:16:00,75.7,54.0,29.99,ENE,68,0.5,1.2,47,0.00,CLR,,0.00,WeatherDisplay:10.37,2013-08-08 00:16:00,
2013-08-07 19:21:00,74.7,54.3,29.99,ENE,68,0.9,1.2,49,0.00,CLR,,0.00,WeatherDisplay:10.37,2013-08-08 00:21:00,
2013-08-07 19:26:00,74.3,53.9,29.98,SSE,158,0.0,0.0,49,0.00,CLR,,0.00,WeatherDisplay:10.37,2013-08-08 00:26:00,
2013-08-07 19:31:00,73.2,54.0,29.98,ESE,112,0.0,0.0,51,0.00,CLR,,0.00,WeatherDisplay:10.37,2013-08-08 00:31:00,
2013-08-07 19:36:00,72.7,53.5,29.99,SE,135,0.0,0.0,51,0.00,CLR,,0.00,WeatherDisplay:10.37,2013-08-08 00:36:00,
2013-08-07 19:41:00,72.1,53.5,29.99,North,360,0.0,0.0,52,0.00,CLR,,0.00,WeatherDisplay:10.37,2013-08-08 00:41:00,
2013-08-07 19:46:00,71.6,53.0,29.99,North,360,0.0,0.0,52,0.00,CLR,,0.00,WeatherDisplay:10.37,2013-08-08 00:46:00,
2013-08-07 19:51:00,71.1,53.1,29.99,North,360,0.0,0.0,53,0.00,CLR,,0.00,WeatherDisplay:10.37,2013-08-08 00:51:00,
2013-08-07 19:56:00,70.0,53.1,29.99,North,360,0.0,0.0,55,0.00,CLR,,0.00,WeatherDisplay:10.37,2013-08-08 00:56:00,
2013-08-07 20:01:00,69.4,53.0,29.99,ESE,112,0.0,0.0,56,0.00,CLR,,0.00,WeatherDisplay:10.37,2013-08-08 01:01:00,
2013-08-07 20:06:00,69.3,53.4,29.99,SE,135,0.0,0.0,57,0.00,CLR,,0.00,WeatherDisplay:10.37,2013-08-08 01:06:00,
2013-08-07 20:11:00,68.5,54.5,29.99,SSE,158,0.0,0.0,61,0.00,CLR,,0.00,WeatherDisplay:10.37,2013-08-08 01:11:00,
2013-08-07 20:17:00,67.8,53.9,29.99,SSE,158,0.0,0.0,61,0.00,CLR,,0.00,WeatherDisplay:10.37,2013-08-08 01:17:00,
2013-08-07 20:22:00,67.3,54.3,29.99,SSE,158,0.0,0.0,63,0.00,CLR,,0.00,WeatherDisplay:10.37,2013-08-08 01:22:00,
2013-08-07 20:27:00,66.4,53.8,29.99,South,180,0.0,0.0,64,0.00,CLR,,0.00,WeatherDisplay:10.37,2013-08-08 01:27:00,
2013-08-07 20:32:00,65.8,53.3,29.99,SSE,158,0.0,0.0,64,0.00,CLR,,0.00,WeatherDisplay:10.37,2013-08-08 01:32:00,
2013-08-07 20:37:00,65.1,53.9,30.00,SSE,158,0.0,0.0,67,0.00,CLR,,0.00,WeatherDisplay:10.37,2013-08-08 01:37:00,
2013-08-07 20:42:00,64.6,53.4,30.00,SSE,158,0.0,0.0,67,0.00,CLR,,0.00,WeatherDisplay:10.37,2013-08-08 01:42:00,
2013-08-07 20:47:00,64.0,52.8,30.00,SSE,158,0.0,0.0,67,0.00,CLR,,0.00,WeatherDisplay:10.37,2013-08-08 01:47:00,
2013-08-07 20:52:00,63.5,53.9,30.00,ESE,112,0.0,0.0,71,0.00,CLR,,0.00,WeatherDisplay:10.37,2013-08-08 01:52:00,
2013-08-07 20:57:00,62.8,53.6,30.00,SE,135,0.0,0.0,72,0.00,CLR,,0.00,WeatherDisplay:10.37,2013-08-08 01:57:00,
2013-08-07 21:02:00,62.4,53.6,30.00,ESE,112,0.0,0.0,73,0.00,CLR,,0.00,WeatherDisplay:10.37,2013-08-08 02:02:00,
2013-08-07 21:07:00,61.7,53.7,30.00,ESE,112,0.0,0.0,75,0.00,CLR,,0.00,WeatherDisplay:10.37,2013-08-08 02:07:00,
2013-08-07 21:12:00,61.5,53.1,30.01,SSE,158,0.0,0.0,74,0.00,CLR,,0.00,WeatherDisplay:10.37,2013-08-08 02:12:00,
2013-08-07 21:17:00,61.3,52.9,30.01,SSE,158,0.0,0.0,74,0.00,CLR,,0.00,WeatherDisplay:10.37,2013-08-08 02:17:00,
2013-08-07 21:22:00,61.0,53.0,30.01,SSE,158,0.0,0.0,75,0.00,CLR,,0.00,WeatherDisplay:10.37,2013-08-08 02:22:00,
2013-08-07 21:27:00,60.6,53.0,30.01,SE,135,0.0,0.0,76,0.00,CLR,,0.00,WeatherDisplay:10.37,2013-08-08 02:27:00,
2013-08-07 21:32:00,60.3,53.4,30.01,ESE,112,0.0,0.0,78,0.00,CLR,,0.00,WeatherDisplay:10.37,2013-08-08 02:32:00,
2013-08-07 21:37:00,60.1,53.6,30.02,SSE,158,0.0,0.0,79,0.00,CLR,,0.00,WeatherDisplay:10.37,2013-08-08 02:37:00,
2013-08-07 21:42:00,59.7,53.2,30.02,SSE,158,0.0,0.0,79,0.00,CLR,,0.00,WeatherDisplay:10.37,2013-08-08 02:42:00,
2013-08-07 21:47:00,59.4,52.9,30.02,SE,135,0.0,0.0,79,0.00,CLR,,0.00,WeatherDisplay:10.37,2013-08-08 02:47:00,
2013-08-07 21:52:00,59.2,53.4,30.02,SSE,158,0.0,0.0,81,0.00,CLR,,0.00,WeatherDisplay:10.37,2013-08-08 02:52:00,